Regional Weather Roundup
Issued by NWS

Home | Current Version | Previous Version | Graphics & Text | Print | Product List | Glossary On
Versions: 1 2 3 4 5 6 7 8 9 10 11 12 13 14 15 16 17 18 19 20 21 22 23 24 25 26 27 28 29 30 31 32 33 34 35 36 37 38 39 40 41 42 43 44 45 46 47 48 49 50
000
ASUS43 KMPX 221501
RWRMN
WEATHER ROUNDUP FOR MINNESOTA
NATIONAL WEATHER SERVICE TWIN CITIES/CHANHASSEN MN
1000 AM CDT FRI AUG 22 2014


NOTE: "FAIR" INDICATES FEW OR NO CLOUDS BELOW 12,000 FEET WITH NO
SIGNIFICANT WEATHER AND/OR OBSTRUCTIONS TO VISIBILITY. N/A MEANS
CURRENT SKY AND/OR WEATHER CONDITIONS ARE NOT AVAILABLE.

MNZ060>063-068>070-221600-
   Twin Cities Metro

CITY           SKY/WX    TMP DP  RH WIND       PRES   REMARKS
TWIN CITIES    CLOUDY    71  67  87 N8        29.95R
ST PAUL        CLOUDY    70  67  90 NW7       29.95R
CRYSTAL        CLOUDY    71  66  84 NW5       29.94R
BLAINE           N/A     70  70 100 W3        29.95R FOG
LAKEVILLE      CLOUDY    72  68  88 N3        29.94S
EDEN PRAIRIE   CLOUDY    72  68  87 N6        29.95R
SOUTH ST PAUL  CLOUDY    71  68  88 NW6       29.94R
LAKE ELMO      CLOUDY    68  68 100 NW6       29.96R FOG
$$
MNZ001>005-007-008-013>017-022>024-027-028-221600-
   Northwest Minnesota

CITY           SKY/WX    TMP DP  RH WIND       PRES   REMARKS
BEMIDJI        CLOUDY    68  64  87 CALM      29.99R
HALLOCK        CLOUDY    64  63  94 N13       29.99S FOG
ROSEAU         CLOUDY    70  63  78 NE6       29.98S
WARROAD        CLOUDY    68  64  88 E5        29.99R
THIEF RVR FALL CLOUDY    68  66  94 NW7       29.97R
CROOKSTON      CLOUDY    66  66 100 N10       29.97S
FOSSTON        LGT RAIN  68  66  94 CALM      29.98R
DETROIT LAKES  CLOUDY    72  68  88 CALM      29.98F
MOORHEAD       CLOUDY    70  70 100 N3        29.98R FOG
PARK RAPIDS    CLOUDY    71  66  84 W5        29.98R
MAHNOMEN       CLOUDY    69  68  96 CALM      29.97S
$$
MNZ006-009>011-018-025>026-221600-
   North Central Minnesota

CITY           SKY/WX    TMP DP  RH WIND       PRES   REMARKS
BAUDETTE       CLOUDY    68  63  84 E3        29.99R
FLAG ISLAND    CLOUDY    68  64  88 E3        29.98S
INTL FALLS     CLOUDY    68  63  84 NE6       29.99S
WASKISH        CLOUDY    68  66  94 CALM      29.98S
BIG FORK       CLOUDY    68  63  83 CALM      29.99S
LONGVILLE      CLOUDY    66  66 100 CALM      29.97S
GRAND RAPIDS   CLOUDY    66  63  88 NW5       29.98S
CRANE LAKE     CLOUDY    64  63  94 CALM      30.00S
ORR            CLOUDY    66  61  82 CALM      29.97S
COOK           CLOUDY    66  63  88 CALM      30.00R
WALKER         CLOUDY    68  64  88 NE3       29.98S
$$
MNZ012-019>021-037-221600-
   Northeast Minnesota

CITY           SKY/WX    TMP DP  RH WIND       PRES   REMARKS
DULUTH         FOG       63  61  93 E3        29.98R VSB 1/2
ELY            CLOUDY    64  61  88 CALM      29.99S
HIBBING        CLOUDY    69  62  78 CALM      29.99R
EVELETH        CLOUDY    63  61  94 CALM      30.00R FOG
DULUTH HARBOR  CLOUDY    61  61 100 E17       29.98R FOG
TWO HARBORS    CLOUDY    63  57  82 E7        29.96R HAZE
SILVER BAY     CLOUDY    63  63 100 NE7       29.96S
GRAND MARAIS     N/A     61  59  93 NE7       29.98R
G MARAIS ARPRT CLOUDY    61  59  94 NE6       30.02R FOG
$$
MNZ029>031-032-039>041-046>048-054>057-064-221600-
   West Central Minnesota

CITY           SKY/WX    TMP DP  RH WIND       PRES   REMARKS
FERGUS FALLS   CLOUDY    72  70  94 W3        29.97R
WHEATON        CLOUDY    66  66 100 CALM      30.00R FOG
MORRIS         MOSUNNY   73  72  94 NW5       29.96S
ALEXANDRIA     MOSUNNY   75  67  76 CALM      29.98S
ELBOW LAKE     CLOUDY    74  69  84 CALM      29.98R
WADENA         CLOUDY    68  66  94 CALM      29.98R
GLENWOOD       MOSUNNY   73  68  83 N3        29.98S
APPLETON       CLOUDY    73  70  88 CALM      29.96R
BENSON         MOSUNNY   72  72 100 CALM      29.97R
ORTONVILLE     CLOUDY    70  68  94 NE6       29.97R FOG
MADISON        DRZL/FOG  73  72  94 CALM      29.97S VSB 1/4
WILLMAR        CLOUDY    72  70  94 N6        29.98S
$$
MNZ033>034-036-042>043-049>051-058-059-221600-
   Central Minnesota

CITY           SKY/WX    TMP DP  RH WIND       PRES   REMARKS
ST CLOUD       CLOUDY    72  67  84 N6        29.96R
SAUK CENTRE    CLOUDY    74  67  79 N5        29.97S
PAYNESVILLE    MOSUNNY   71  66  85 N3        29.97S
AITKIN         CLOUDY    66  61  82 CALM      29.97R HAZE
PINE RIVER     CLOUDY    68  66  94 NE3       30.01R
BRAINERD       CLOUDY    67  65  93 N7        29.98R
STAPLES        CLOUDY    66  64  94 CALM      29.98S
LONG PRAIRIE   CLOUDY    68  66  94 N3        29.98R
LITTLE FALLS   CLOUDY    64  63  94 CALM      29.97S
LITCHFIELD     PTSUNNY   73  72  94 N5        29.98R
BUFFALO        CLOUDY    72  67  84 NW6       29.97R
MAPLE LAKE     CLOUDY    72  70  92 N5        29.98R
$$
MNZ037-044-045-052-053-221600-
   East Central Minnesota

CITY           SKY/WX    TMP DP  RH WIND       PRES   REMARKS
PRINCETON      CLOUDY    72  66  83 N6        29.97R
MORA           CLOUDY    63  63 100 CALM      29.98S FOG
CAMBRIDGE      CLOUDY    68  61  77 NW6       29.95R HAZE
RUSH CITY      CLOUDY    65  64  95 N7        29.96R
MOOSE LAKE     CLOUDY    61  61 100 CALM      29.97R FOG
HINCKLEY       CLOUDY    63  63 100 N6        29.97R FOG
CLOQUET        CLOUDY    63  61  94 CALM      29.98R FOG
MCGREGOR       CLOUDY    64  63  94 N3        29.98S
$$
MNZ071>073-080-081-089-090-097-098-221600-
   Southwest Minnesota

CITY           SKY/WX    TMP DP  RH WIND       PRES   REMARKS
MONTEVIDEO     CLOUDY    73  72  94 E5        29.98R
GRANITE FALLS  PTSUNNY   75  71  87 NE5       29.98S
CANBY          CLOUDY    73  69  89 N6        29.99R
MARSHALL       CLOUDY    70  66  88 CALM      29.97S VSB 1
REDWOOD FALLS  PTSUNNY   75  70  84 N5        29.96S
OLIVIA         CLOUDY    72  70  94 N5        29.97R
PIPESTONE      MOSUNNY   73  70  88 NE6       29.99S
WINDOM         CLOUDY    72  70  94 N7        29.98R FOG
WORTHINGTON    CLOUDY    72  14  11 NE10      30.00R
JACKSON        CLOUDY    72  70  94 N8        29.97S FOG
TRACY          CLOUDY    72  71  97 N6        29.99R FOG
SLAYTON        CLOUDY    70  70  99 CALM      30.01R FOG
$$
MNZ065>067-074>077-082>085-091>093-221600-
   South Central Minnesota

CITY           SKY/WX    TMP DP  RH WIND       PRES   REMARKS
MANKATO        CLOUDY    73  66  78 N9        29.95R
NEW ULM        SUNNY     73  72  94 N6        29.96R
ST JAMES       CLOUDY    75  72  88 N5        29.97R
FAIRMONT       CLOUDY    72  68  88 N6        29.96R
GLENCOE        PTSUNNY   74  67  81 N5        29.96R
FARIBAULT      CLOUDY    75  66  73 N5        29.95R HAZE
OWATONNA       PTSUNNY   73  70  88 NW9       29.95R HAZE
WASECA         CLOUDY    72  68  88 N7        29.96S
ALBERT LEA     PTSUNNY   73  72  94 NE5       29.95S FOG
$$
MNZ078>079-086>088-094>096-221600-
   Southeast Minnesota

CITY           SKY/WX    TMP DP  RH WIND       PRES   REMARKS
ROCHESTER      CLOUDY    75  69  81 NE5       29.97R HAZE
RED WING       CLOUDY    75  70  83 N8        29.92R
STANTON        CLOUDY    74  69  85 N6        29.93S HAZE
DODGE CENTER   CLOUDY    73  70  88 CALM      29.96R FOG
WINONA         CLOUDY    77  72  83 CALM      29.92S
AUSTIN         CLOUDY    73  70  88 N6        29.95R FOG
PRESTON        CLOUDY    72  72 100 N5        29.96R FOG
$$
ABBREVIATIONS USED IN REMARKS
   TC - TEMPERATURES IN CELSIUS
  WCI - WIND CHILL INDEX
   HX - HEAT INDEX
  VSB - VISIBILITY
$$


USA.gov is the U.S. government's official web portal to all federal, state and local government web resources and services.